JILIN-01 KUANFU 02B 1

导读 | 豆包AI

JILIN-01 KUANFU 02B 1(吉林一号宽幅02B 01星,又名“祁连一号”),于北京时间2024年9月20日在太原卫星发射中心由长征二号丁运载火箭成功发射入轨。该卫星是“吉林一号”星座新一代轻量级超大幅宽亚米级光学遥感卫星,可提供150千米幅宽、0.5米分辨率高清影像,01星将赋能甘肃林草监测、生态保护,同时服务国土资源、智慧城市等多个领域,与其他卫星组网后大幅提升吉林星座全球重访能力。

Basic Information
目录编号:
61189
目录名称:
JILIN-01 KUANFU 02B 1
国际标识:
2024-169A
轨道中心:
EARTH
卫星名称:
JILIN-01 KUANFU 02B 1
卫星全名:
JILIN-01 KUANFU 02B 1
卫星状态:
在轨 (已飞行585 天)
发射日期:
2024-09-20 UTC
国别 :
中国 (CN)
星等 :
--
Orbit Information
数据来源 国际轨道数据
星历时间: 2026-04-28T20:24:21+0800
9小时前
查看轨道信息
半长轴: 6915.185km
偏心率: 0.0007753
轨道倾角: 97.556°
近地点辐角 189.611°
升交点赤经 208.787°
平近点角 170.498°
近地点: 531.686km
远地点: 542.41km
周期: 95.382分钟
每日圈数: 15.097225
Detailed Information
使用方式:
暂无
2D Orbit Map
3D Orbit Map
Orbit Altitude Analysis Chart
Orbit Inclination Analysis Chart
Orbit Comprehensive Analysis Chart
View Comprehensive Chart